Página principal
METAR-TAF:

METAR-TAF

Aeroportos :

Guelmim, Marrocos

latitude: 29-01-00N, longitude: 10-04-04W, altura: 301 m

Observação actual do tempo

O boletim foi feito há 30 minutos, às 10:00 UTC
Vento 4 kt de oeste
Temperatura 20°C
Humidade 78%
Pressão 1013 hPa
Visibilidade: 6000 m
Nuvens dispersasa uma altura de 1600 ft
Nuvens dispersasa uma altura de 10000 ft

METAR: GMAG 201000Z 26004KT 6000 SCT016 SCT100 20/16 Q1013 NOSIG

Hora: 11:30 (10:30 UTC)


TAF: em falta

Observações e previsões do tempo de mais de 4000 aeroportos (mensagens METAR e TAF).

As estações disponíveis são os pontos amarelos e vermelhos sobre o mapa.

Mova o rato sobre o mapa para ver o nome da estação.

Depois clique no ponto para visualizar as observações e previsões meteorológicas.

Para alterar o mapa : clique nos botões verdes com uma cruz preta para aumentar o zoom; no botão verde com uma pitada de zoom; ou nas setas verdes para mapas adjacentes.


METAR-TAF: